User: anonymous
Location: PACMO
(41.3967°N, 90.3760°W)
Time: 20:54:42
(UTC-05:00)
Language:

NOAA 19 - Orbit

View from above orbital plane
View from above orbital plane
View from above satellite
View from above satellite

Ground track
Ground track

The orbit data is extracted from the following two-line orbital elements,

1 33591U 09005A   14262.12081865  .00000303  00000-0  19083-3 0  3827
2 33591 098.9529 206.9109 0013478 210.7725 270.8025 14.11763069289246
Epoch (UTC): 19 September 2014 02:53:58
Eccentricity: 0.0013478
inclination: 98.9529°
perigee height: 843 km
apogee height: 863 km
right ascension of ascending node: 206.9109°
argument of perigee: 210.7725°
revolutions per day: 14.11763069
mean anomaly at epoch: 270.8025°
orbit number at epoch: 28924

The dashed part of the orbit path shows where the satellite is in the earth's shadow,  

DLR